This is the latest recevied weather packets stored in our database for station/object N7WSS. If no packets are shown the sender has not sent any weather packets the latest 1 day(s).
| Time | Temp. | Humidity | Pressure | Rain* | Wind** | Luminosity | Snow |
|---|---|---|---|---|---|---|---|
| 1778019969 | 23.33° C | 33% | 1008.5 hPa | 0 mm | 1.79 m/s, 63° | - | - |
| 1778019666 | 23.89° C | 32% | 1008.4 hPa | 0 mm | 1.79 m/s, 1° | - | - |
| 1778019363 | 24.44° C | 31% | 1008.4 hPa | 0 mm | 2.68 m/s, 110° | - | - |
| 1778019059 | 24.44° C | 31% | 1008.4 hPa | 0 mm | 3.58 m/s, 47° | - | - |
| 1778018756 | 23.89° C | 34% | 1008.4 hPa | 0 mm | 4.92 m/s, 349° | - | - |
| 1778018454 | 24.44° C | 34% | 1008.7 hPa | 0 mm | 0.45 m/s, 103° | - | - |
| 1778018152 | 24.44° C | 34% | 1008.7 hPa | 0 mm | 2.68 m/s, 64° | - | - |
| 1778017849 | 23.89° C | 34% | 1008.8 hPa | 0 mm | 3.13 m/s, 77° | - | - |
| 1778017547 | 23.33° C | 36% | 1008.9 hPa | 0 mm | 3.58 m/s, 65° | - | - |
| 1778017244 | 23.89° C | 35% | 1008.8 hPa | 0 mm | 2.24 m/s, 66° | - | - |
| 1778016942 | 22.78° C | 36% | 1008.7 hPa | 0 mm | 2.24 m/s, 77° | - | - |
| 1778016638 | 23.89° C | 35% | 1008.8 hPa | 0 mm | 2.24 m/s, 39° | - | - |
| 1778016334 | 23.89° C | 36% | 1008.9 hPa | 0 mm | 3.13 m/s, 87° | - | - |
| 1778016032 | 24.44° C | 35% | 1009 hPa | 0 mm | 2.68 m/s, 93° | - | - |
| 1778015729 | 24.44° C | 34% | 1008.9 hPa | 0 mm | 4.02 m/s, 86° | - | - |
| 1778015425 | 24.44° C | 35% | 1009 hPa | 0 mm | 2.24 m/s, 85° | - | - |
| 1778015122 | 24.44° C | 35% | 1009 hPa | 0 mm | 3.13 m/s, 149° | - | - |
| 1778014820 | 24.44° C | 35% | 1009.1 hPa | 0 mm | 1.34 m/s, 287° | - | - |
| 1778014518 | 23.89° C | 33% | 1009.2 hPa | 0 mm | 2.68 m/s, 56° | - | - |
| 1778014214 | 23.89° C | 36% | 1009.2 hPa | 0 mm | 2.24 m/s, 54° | - | - |
| 1778013912 | 23.89° C | 35% | 1009.2 hPa | 0 mm | 2.68 m/s, 123° | - | - |
| 1778013609 | 23.89° C | 37% | 1009.2 hPa | 0 mm | 3.58 m/s, 78° | - | - |
| 1778013305 | 23.89° C | 37% | 1009.3 hPa | 0 mm | 2.68 m/s, 215° | - | - |
| 1778013002 | 23.33° C | 39% | 1009.2 hPa | 0 mm | 1.79 m/s, 99° | - | - |
| 1778012699 | 23.89° C | 38% | 1009.5 hPa | 0 mm | 2.68 m/s, 67° | - | - |
* Rain latest hour (hover to see other rain measurements)
** Current wind speed in m/s (hover to see current wind gust speed)